#timestamp,LO_Frequency,Hit,StdDev 
1650945615.7,286046998.6,N
1650945635.5,286047000.3,N
1650945655.4,286047000.3,N
1650945675.2,286046999.7,N
1650945695.0,286047001.6,N
1650945695.9,286047001.6,N
1650945715.8,286046999.7,N
1650945735.6,286047000.5,N
1650945755.5,286046998.5,N
1650945775.3,286046998.5,N
1650945795.1,286046998.6,N
1650945815.9,286047000.1,N
1650945835.7,286047000.1,N
1650945855.5,286047000.1,N
1650945875.4,286047001.9,N
1650945895.2,286047000.9,N
1650945915.1,286046998.1,N
1650945916.0,286046998.1,N
1650945935.8,286046998.4,N
1650945955.6,286046998.5,N
1650945975.5,286046998.3,N
1650945995.3,286047001.2,N
1650946015.2,286047000.9,N
1650946035.9,286047000.3,N
1650946055.7,286047000.3,N
1650946075.6,286046998.1,N
1650946095.4,286047000.3,N
1650946115.2,286047000.3,N
1650946135.1,286046999.9,N
1650946136.0,286046999.9,N
1650946155.8,286046998.6,N
1650946175.7,286046998.6,N
1650946195.5,286047001.0,N
1650946215.3,286047000.5,N
1650946235.2,286047000.8,N
1650946255.0,286047000.9,N
1650946255.9,286047000.9,N
1650946275.7,286047000.3,N
1650946295.6,286047000.6,N
1650946315.4,286046998.6,N
1650946335.3,286046999.6,N
1650946355.1,286047000.7,N
1650946356.0,286047000.7,N
1650946375.8,286047002.8,N
1650946395.7,286047000.7,N
1650946415.5,286047000.8,N
1650946435.4,286047000.6,N
1650946455.2,286046999.7,N
1650946475.0,286047000.5,N
1650946475.9,286047000.5,N
1650946495.8,286046999.7,N
1650946515.6,286047002.2,N
1650946535.4,286047000.9,N
1650946555.3,286047000.5,N
1650946575.1,286046998.4,N
1650946595.9,286047000.0,N
1650946615.7,286047002.2,N
1650946635.5,286046999.7,N
1650946655.4,286047000.0,N
1650946675.2,286047000.0,N
1650946695.0,286046999.7,N
1650946695.9,286046999.7,N
1650946715.8,286047002.1,N
1650946735.6,286046999.9,N
1650946755.5,286047000.3,N
1650946775.3,286047002.7,N
1650946795.1,286047004.3,Y
1650946815.9,286046999.8,P
1650946835.7,286047000.0,N
1650946855.5,286047000.9,N
1650946875.4,286047001.0,N
1650946895.2,286047000.6,N
1650946915.1,286047001.2,N
1650946916.0,286047001.2,N
1650946935.8,286046998.2,Y
1650946955.7,286046996.9,P
1650946975.5,286046996.9,N
1650946995.3,286046999.6,N
1650947015.2,286046999.6,N
1650947035.0,286046998.1,N
1650947035.9,286046998.1,N
1650947055.7,286046998.6,N
1650947075.6,286047000.6,N
1650947095.4,286047000.8,N
1650947115.3,286047001.0,N
1650947135.1,286047000.8,N
1650947136.0,286047000.8,N
1650947155.8,286047000.7,N
1650947175.7,286046998.8,N
1650947195.5,286046998.8,N
1650947215.3,286047001.2,N
1650947235.2,286046998.4,N
1650947255.0,286047000.5,N
1650947255.9,286047000.5,N
1650947275.8,286046998.8,N
1650947295.6,286046996.6,N
1650947315.4,286046999.1,N
1650947335.3,286046998.9,N
1650947355.1,286046999.3,N
1650947375.9,286046999.2,N
1650947395.7,286046998.3,N
1650947415.5,286047000.4,N
1650947435.4,286047000.6,N
1650947455.2,286047000.8,N
1650947475.0,286046999.6,N
1650947475.9,286046999.6,N
1650947495.8,286046999.5,N
1650947515.6,286046999.3,N
1650947535.5,286046998.9,N
1650947555.3,286047001.0,N
1650947575.1,286046998.5,N
1650947595.9,286046999.3,N
1650947615.7,286046999.5,N
1650947635.5,286046998.9,N
1650947655.4,286046998.4,N
1650947675.2,286047000.7,N
1650947695.1,286046999.7,N
1650947696.0,286046999.7,N
1650947715.8,286047001.7,N
1650947735.6,286047000.1,N
1650947755.5,286047000.5,N
1650947775.3,286047001.0,N
1650947795.2,286046999.9,N
1650947815.0,286047002.7,N
1650947815.9,286047002.7,N
1650947835.7,286047001.5,N
1650947855.6,286047002.2,N
1650947875.4,286047002.6,N
1650947895.3,286047002.6,N
1650947915.1,286046999.7,N
1650947916.0,286046999.7,N
1650947935.8,286047000.4,N
1650947955.7,286047002.4,N
1650947975.5,286047002.5,N
1650947995.4,286047001.9,N
1650948015.2,286047002.5,N
1650948035.0,286047001.6,N
1650948035.9,286047001.6,N
1650948055.8,286047002.1,N
1650948075.6,286047002.2,N
1650948095.4,286047002.7,N
1650948115.3,286047002.5,N
1650948135.1,286047001.5,N
1650948155.9,286047001.1,N
1650948175.7,286046998.7,N
1650948195.5,286046997.6,N
1650948215.4,286046997.4,N
1650948235.2,286046996.5,N
1650948255.0,286047000.8,N
1650948255.9,286047000.8,N
1650948275.8,286046998.1,N
1650948295.6,286046998.6,N
1650948315.5,286046998.9,N
1650948335.3,286046998.5,N
1650948355.1,286046998.5,N
1650948375.9,286046998.2,N
1650948395.7,286047000.6,N
1650948415.5,286046998.5,N
1650948435.4,286046996.9,N
1650948455.2,286046997.2,N
1650948475.1,286046995.4,N
1650948476.0,286046995.4,N
1650948495.8,286046995.2,N
1650948515.6,286046996.1,N
1650948535.5,286046995.1,N
1650948555.3,286046995.9,N
1650948575.1,286046993.8,N
1650948595.9,286046996.4,N
1650948615.7,286046993.7,N
1650948635.6,286046993.7,N
1650948655.4,286046995.9,N
1650948675.2,286046995.1,N
1650948695.1,286046995.6,N
1650948696.0,286046995.6,N
1650948715.8,286046993.8,Y
1650948735.7,286046997.3,P
1650948755.5,286046996.7,P
1650948775.3,286046996.8,P
1650948795.2,286046997.7,Y
1650948815.0,286046998.2,P
1650948815.9,286046998.2,N
1650948835.7,286046998.4,N
1650948855.6,286046998.1,Y
1650948875.4,286047001.9,P
1650948895.3,286047001.4,N
1650948915.1,286047001.7,N
1650948935.8,286047001.5,N
1650948955.7,286047002.1,N
1650948975.5,286047002.3,N
1650948995.4,286047002.4,N
1650949015.2,286047001.2,N
1650949035.0,286046999.9,N
1650949035.9,286046999.9,N
1650949055.8,286047000.2,N
1650949075.6,286046999.7,N
1650949095.4,286047002.3,N
1650949115.3,286047000.5,N
1650949135.1,286047000.0,N
1650949155.9,286047000.3,N
1650949175.7,286046998.5,N
1650949195.5,286046996.9,N
